"Pseudo-MPEC" for P10OJAv

Created 2019 Jun 16 22:07:38 UT using Find_Orb

Click here for an explanation of pseudo-MPECs

 
 Astrometry: 
     P10OJAv  C2019 05 25cwKrd,68]wc`6`oVIS*BQuD9CK:s7XKPi#@[:qE!-EaWV10:eRlaF51
     P10OJAv  C2019 06 05P_^U1G26=bY@\;[S:\a_Co.(0t45d;sso^@'u^C.X%I9YcOt#MlrF51
     P10OJAv  C2019 06 05[t(/.^DLTqE#0f++$(m6.=*AZY;],a0B[l+i+AstrometryPo_!:F51
     P10OJAv  C2019 06 05b1ZGp8PdO8[YY;8NSy5=up/9n0.Sfredacted;pw]qHuG2J_G]rbF51
     P10OJAv  C2019 06 05PFoO5f$+v*xDo`x[cH2?ZugFm]y03yY5Fttv%M@N3rcP@u*:0Z[0F51
     P10OJAv KC2019 06 05Za$q:h_:GU)GP#w/*]rjFeu-%+g`!!trpWd=gme=JLUZc'%/)j^6474
     P10OJAv KC2019 06 05ID#c:$dhQ4*bxGOEflp)%=',Bjif)click5M]xgcUmQ_UP`+uMQE474
     P10OJAv KC2019 06 050J$MQdpvT\%ZL,=JsYg(?A\o[AD.rjrBHFN3p$g,]!Xir)RpD2i?474
     P10OJAv KC2019 06 05n8i]c'[8O'@QD)^'*J#Ef/pdu9)DR^35!)p\BEbo-E-h*J9aIYJsJ04
     P10OJAv KC2019 06 05DE3'ie?WT@`JW(IuEeDhere,e,toVg0YG4SEY@#+FZ_@@cw#2LHxJ04
     P10OJAv KC2019 06 07KT=W(23pvFq0SpCsvFXvZq=!Z:XGgZy84Ip(6f$\7h6-1/^XBZ89Z84
     P10OJAv KC2019 06 07wmN8%uY_tKM6tD0dvFd\cOF!-h\[YG/KM*^f$c:n]82GbHX*vV*wZ84
     P10OJAv KC2019 06 07=LY=.m?qrFW2Z@OX;YuX'S^fO:J'Xw`O_-n0:2]'GW-P5kI!#*TbZ84
     P10OJAv KC2019 06 08J^ue4L%forde32u9'bP./-o_wu*Fv.*+JUCP.;3YAk9r$i3wPLNK691
     P10OJAv KC2019 06 08Wt?X-i3Poc8d?%C`5W?a[/hI`O4C,bE%@,n.\qN(kTL+Z;byxbD!691
     P10OJAv KC2019 06 08P6`]R_Mle[(),Wewek]E,Excwa-xc$OTf`#(3ImHRPUc,NaiMniK691
     P10OJAv KC2019 06 08Wffe*B:^`Zxb2g0Zs`i6VvekfTqwA]o`g8T%R4$Jvjl`$eGnWjtOL01
     P10OJAv KC2019 06 08Ufod]l+tbkbTEA`3Eexplanation1/i#pnBqbD(R?Xa_'Kvt0p\UL01
     P10OJAv KC2019 06 082jTTPgS;wCG7ary_+X2lq:rmh(J^*nl^DZ8:15XXLsP%3*0E=Vq1L01
     P10OJAv pC2019 06 08(y1\#Igqo%oOq/`,Br2;H7(-!($2y5:=4%Tk(Abx1MrAhXc`kXc(L01
     P10OJAv KC2019 06 09;p^Ctpvcd9QjmBLh^JioR;j@s-Zd@CG5m_2gU.*?G[coW6];:eluK88
     P10OJAv KC2019 06 09/foqG37D48s8Y(FdGyeWUTLp4k0!)Yr*FcN5C@b[k'm(q2ENhSU^K88
     P10OJAv KC2019 06 11gFQG]dsg16pY6bnj-ObTXZgWb/0=GQd!]e_G92)P2cAOWe\aNk?b291
     P10OJAv KC2019 06 112vJA`hB7,Ctq\vd=.nmu1h$BT:)\+HD=xH8^jZPvX$H:2Wc%87mZ291
     P10OJAv KC2019 06 11G0c]f'3d*L#t`SqWsY2_jufI3W=)k9//O]C9gIcIg('`;9E_he/!291
     P10OJAv KC2019 06 12w^hDQQa8^tY-juJ:bRuHG4Ha3pWdvo-tF^O-?gkmFR]B#Q^/LaW:104
     P10OJAv KC2019 06 12/vhMaBn8i,gPK.BUtVQQ-ia4PN_6E6XLwvIk4lwVB#dus9Q$D9n+104
     P10OJAv KC2019 06 12'D#U^mTtK[KG*\vmlpV]F*Pw.tjZq!]'9Q[3p8JT`v!RoLb,rl\o104
     P10OJAv KC2019 06 14.96222013 12 27.28 +46 04 54.0    ~6F07 19.8 GVNEOCPJ95
     P10OJAv KC2019 06 14.96640613 12 23.03 +46 07 37.0    ~6F07 20.2 GVNEOCPJ95
     P10OJAv KC2019 06 14.97325613 12 15.82 +46 12 03.6    ~6F07 20.1 GVNEOCPJ95
     P10OJAv  C2019 06 15.17568 13 08 55.04 +48 27 55.5    ~6F4b 20.5 GVNEOCPI52
     P10OJAv  C2019 06 15.17679 13 08 53.62 +48 28 39.2    ~6F4b 21.0 GVNEOCPI52
     P10OJAv  C2019 06 15.17791 13 08 52.27 +48 29 23.1    ~6F4b 20.5 GVNEOCPI52

Station data:
(104) San Marcello Pistoiese  (N44.063037 E10.804200)  Italy. 0.40-m f/5
   reflector.
(291) LPL/Spacewatch II  (N31.961669 W111.599905)  US/Arizona.  Observers J.
   V. Scotti, R. S. McMillan. 1.8-m f/2.7 reflector + CCD.
(474) Mount John Observatory, Lake Tekapo  (S43.987388 E170.464960)  New
   Zealand.  Observers A. C. Gilmore, P. M. Kilmartin. Measurer P. M.
   Kilmartin. 1.0-m f/7.7 reflector + CCD.
(691) Steward Observatory, Kitt Peak - Spacewatch  (N31.962174 W111.600327)
   US/Arizona.  Observer J. V. Scotti. 0.9-m f/3 reflector + CCD.
(F51) Pan-STARRS 1, Haleakala  (N20.707235 W156.255910)  US/Hawaii.
   Observers N. Primak, A. Schultz, S. Watters, J. Thiel, T. Goggia. Measurer
   PS1 Science Consortium. 1.8-m Ritchey-Chrétien + CCD.
(I52) Steward Observatory, Mt. Lemmon Station  (N32.442547 W110.788920)
   US/Arizona.  Observers T. A. Pruyne, B. M. Africano, E. J. Christensen, G.
   A. Farneth, D. C. Fuls, A. R. Gibbs, A. D. Grauer, H. Groeller, J. A.
   Johnson, R. A. Kowalski, S. M. Larson, G. J. Leonard, R. L. Seaman, F. C.
   Shelly. 1.0-m reflector + CCD.
(J04) ESA Optical Ground Station, Tenerife  (N28.300924 W16.511830)  Canary
   Islands (Spain).  Observer D. Abreu. Measurers M. Micheli, D. Koschny, E.
   Schwab, M. Busch, A. Knöfel. 1.0-m f/4.4 reflector + CCD.
(J95) Great Shefford  (N51.474969 W1.447003)  UK.  Observer P. Birtwhistle.
   0.40-m f/6.0 Schmidt-Cassegrain + CCD.
(K88) GINOP-KHK, Piszkéstető  (N47.917622 E19.893600)  Hungary.  Observer K.
   Sárneczky. 0.60-m Schmidt + CCD.
(L01) Višnjan Observatory, Tičan  (N45.290900 E13.749300)  Croatia.
   Observers K. Korlević, E. Pettarin. Measurer E. Pettarin. 1.0-m f/2.9
   reflector + CCD.
(Z84) Calar Alto-Schmidt  (N37.224049 W2.548210)  Spain.

Orbital elements:  P10OJAv
   Perihelion 2019 Jul 13.832186 +/- 0.00439 TT = 19:58:20 (JD 2458678.332186)
Epoch 2019 Jun 15.0 TT = JDT 2458649.5   Earth MOID: 0.0228   AutoNEOCP
M 352.15714151 +/- 0.014            (J2000 ecliptic)
n   0.27201747 +/- 0.000465         Peri.   49.42521 +/- 0.0021
a   2.35905560 +/- 0.00269          Node   250.37367 +/- 0.0016
e   0.6030545 +/- 0.00047           Incl.    6.84432 +/- 0.0040
P   3.62                   H 24.9   G  0.15   U  7.6  
q 0.93641648 +/- 4.31e-5    Q 3.78169471 +/- 0.00543
From 34 observations 2019 May 25-June 15; mean residual 0".32
Residuals in arcseconds: 
190525 F51  .14+  .39+    190607 Z84  .09+  .03+    190611 291  .09+  .72+    
190605 F51  .12-  .19+    190608 691  .50-  .44-    190612 104  1.3+  .33-    
190605 F51  .18-  .03-    190608 691  .21-  .12-    190612 104  .62+  .27+    
190605 F51  .03+  .49-    190608 691  .27-  .03+    190612 104  .59+  .39+    
190605 F51  .04-  .08+    190608 L01  .25+  .47-    190614 J95  .42-  .05-    
190605 474  .06-  .23+    190608 L01  .32+  .21-    190614 J95  .61+  .02-    
190605 474  .22-  .22-    190608 L01  .03+  .44+    190614 J95  .38-  .03-    
190605 474  .03+  .19-    190608 L01  .06-  .10-    190615 I52  .41+  .07+    
190605 J04  .00   .12-    190609 K88  .53-  .04+    190615 I52  .38-  .06+    
190605 J04  .08-  .01-    190609 K88  .16+  .25-    190615 I52  .34-  .14-    
190607 Z84  .03+  .13-    190611 291  .09+  .43+    
190607 Z84  .19-  .02+    190611 291  .05+  .29+    

Ephemerides (geocentric):
Date (UTC) HH   RA              Dec         delta   r     elong  mag " sig PA
---- -- -- --  -------------   -----------  ------ ------ -----  --- ---- ---
2019 06 16 22  12 17 49.798   +66 53 42.73  .03411 1.0060  72.3 21.5 .227   5
2019 06 16 23  12 15 48.645   +67 17 35.34  .03419 1.0058  72.0 21.5 .231   4
2019 06 17 00  12 13 43.949   +67 41 15.90  .03426 1.0056  71.7 21.5 .235   3
2019 06 17 01  12 11 35.572   +68 04 44.02  .03434 1.0054  71.3 21.5 .239   2
2019 06 17 02  12 09 23.374   +68 27 59.35  .03442 1.0052  71.0 21.6 .243   1
2019 06 17 03  12 07 07.206   +68 51 01.49  .03450 1.0050  70.7 21.6 .247   0
2019 06 17 04  12 04 46.916   +69 13 50.07  .03458 1.0048  70.4 21.6 .251 179
2019 06 17 05  12 02 22.344   +69 36 24.68  .03467 1.0046  70.1 21.6 .255 178
2019 06 17 06  11 59 53.325   +69 58 44.91  .03476 1.0044  69.8 21.6 .259 177
2019 06 17 07  11 57 19.688   +70 20 50.35  .03485 1.0042  69.4 21.7 .263 176
2019 06 17 08  11 54 41.255   +70 42 40.57  .03494 1.0040  69.1 21.7 .267 175
2019 06 17 09  11 51 57.844   +71 04 15.12  .03503 1.0038  68.8 21.7 .271 174
2019 06 17 10  11 49 09.263   +71 25 33.55  .03513 1.0036  68.5 21.7 .275 172
2019 06 17 11  11 46 15.319   +71 46 35.40  .03522 1.0034  68.2 21.8 .279 171
2019 06 17 12  11 43 15.810   +72 07 20.17  .03532 1.0032  68.0 21.8 .283 170
2019 06 17 13  11 40 10.529   +72 27 47.38  .03542 1.0030  67.7 21.8 .287 169
2019 06 17 14  11 36 59.265   +72 47 56.51  .03552 1.0028  67.4 21.8 .291 168
2019 06 17 15  11 33 41.802   +73 07 47.02  .03563 1.0026  67.1 21.9 .295 167
2019 06 17 16  11 30 17.919   +73 27 18.36  .03574 1.0024  66.8 21.9 .299 166
2019 06 17 17  11 26 47.393   +73 46 29.98  .03584 1.0022  66.5 21.9 .303 164
2019 06 17 18  11 23 10.000   +74 05 21.27  .03595 1.0020  66.2 21.9 .307 163
2019 06 17 19  11 19 25.512   +74 23 51.64  .03606 1.0018  66.0 21.9 .311 162
2019 06 17 20  11 15 33.704   +74 42 00.45  .03618 1.0016  65.7 22.0 .315 161
2019 06 17 21  11 11 34.350   +74 59 47.06  .03629 1.0014  65.4 22.0 .319 159
2019 06 17 22  11 07 27.230   +75 17 10.80  .03641 1.0012  65.2 22.0 .323 158
2019 06 17 23  11 03 12.128   +75 34 10.99  .03653 1.0010  64.9 22.0 .327 157
2019 06 18 00  10 58 48.837   +75 50 46.90  .03665 1.0008  64.6 22.1 .331 155
2019 06 18 01  10 54 17.160   +76 06 57.81  .03677 1.0006  64.4 22.1 .335 154
2019 06 18 02  10 49 36.915   +76 22 42.98  .03689 1.0004  64.1 22.1 .339 153
2019 06 18 03  10 44 47.934   +76 38 01.64  .03702 1.0002  63.9 22.1 .342 151
2019 06 18 04  10 39 50.072   +76 52 53.01  .03714 1.0000  63.6 22.2 .346 150
2019 06 18 05  10 34 43.208   +77 07 16.30  .03727 0.9998  63.4 22.2 .350 148
2019 06 18 06  10 29 27.248   +77 21 10.71  .03740 0.9996  63.1 22.2 .354 147
2019 06 18 07  10 24 02.134   +77 34 35.42  .03753 0.9994  62.9 22.2 .357 145
2019 06 18 08  10 18 27.842   +77 47 29.63  .03766 0.9992  62.6 22.3 .361 143
2019 06 18 09  10 12 44.392   +77 59 52.54  .03780 0.9990  62.4 22.3 .365 142
2019 06 18 10  10 06 51.852   +78 11 43.33  .03793 0.9988  62.2 22.3 .368 140
2019 06 18 11  10 00 50.340   +78 23 01.23  .03807 0.9987  61.9 22.3 .372 138
2019 06 18 12  09 54 40.031   +78 33 45.48  .03821 0.9985  61.7 22.3 .376 137
2019 06 18 13  09 48 21.157   +78 43 55.34  .03835 0.9983  61.5 22.4 .379 135
2019 06 18 14  09 41 54.017   +78 53 30.11  .03849 0.9981  61.3 22.4 .383 133
2019 06 18 15  09 35 18.972   +79 02 29.15  .03864 0.9979  61.0 22.4 .386 131
2019 06 18 16  09 28 36.453   +79 10 51.86  .03878 0.9977  60.8 22.4 .390 129
2019 06 18 17  09 21 46.957   +79 18 37.70  .03893 0.9975  60.6 22.5 .393 127
2019 06 18 18  09 14 51.049   +79 25 46.23  .03907 0.9973  60.4 22.5 .396 126
2019 06 18 19  09 07 49.357   +79 32 17.06  .03922 0.9971  60.2 22.5 .400 124
2019 06 18 20  09 00 42.573   +79 38 09.90  .03937 0.9969  60.0 22.5 .403 122
2019 06 18 21  08 53 31.441   +79 43 24.56  .03952 0.9967  59.8 22.6 .406 120